Regional Weather Roundup
Issued by NWS Albany, NY

Home | Current Version | Previous Version | Text Only | Print | Product List | Glossary On
Versions: 1 2 3 4 5 6 7 8 9 10 11 12 13 14 15 16 17 18 19 20 21 22 23 24 25 26 27 28 29 30 31 32 33 34 35 36 37 38 39 40 41 42 43 44 45 46 47 48 49
000
ASUS41 KALY 211610
RWRALY

NEW YORK STATE HOURLY WEATHER ROUNDUP
NATIONAL WEATHER SERVICE ALBANY NY
1200 PM EDT TUE OCT 21 2014

NOTE: "FAIR" INDICATES FEW OR NO CLOUDS BELOW 12,000 FEET WITH NO
SIGNIFICANT WEATHER AND/OR NO OBSTRUCTIONS TO VISIBILITY.

NYZ032-033-038>043-046>054-057>066-NYZ062>081-211700-
EAST


CITY           SKY/WX    TMP DP  RH WIND       PRES   REMARKS
ALBANY         LGT RAIN  51  49  92 SE3       29.94S FOG
GLENS FALLS    CLOUDY    50  46  86 N5        29.95R
POUGHKEEPSIE   CLOUDY    53  50  89 N5        29.91S
NEWBURGH       CLOUDY    54  50  87 CALM      29.92S
MONTGOMERY     CLOUDY    52  48  86 N7        29.90F
WHITE PLAINS   PTSUNNY   64  51  62 E7G16     29.88F
ISLIP          PTSUNNY   66  50  56 SE14      29.88F
NEW YORK CITY  PTSUNNY   65  48  54 SE10      29.88S
CENTRAL PARK   CLOUDY    64  50  60 VRB3      29.90F
$$

NYZ005>009-017-018-044>046-055-056-211700-
CENTRAL


CITY           SKY/WX    TMP DP  RH WIND       PRES   REMARKS
FULTON         LGT RAIN  52  47  83 VRB6      29.87R
SYRACUSE       CLOUDY    50  47  89 E8        29.87R
ROME           CLOUDY    51  47  86 SE7       29.90R
ELMIRA         CLOUDY    54  50  86 SW6       29.85R
BINGHAMTON     CLOUDY    52  46  80 SW7       29.86R
MONTICELLO     CLOUDY    46  46 100 E7        29.91S
$$

NYZ026>034-041>043-211700-
NORTH


CITY           SKY/WX    TMP DP  RH WIND       PRES   REMARKS
WATERTOWN      LGT RAIN  52  45  77 NE9       29.90R
FORT DRUM      NOT AVBL
MASSENA        CLOUDY    45  41  86 NE12      30.00R
SARANAC LAKE   LGT RAIN  44  42  93 NE8       29.92R
PLATTSBURGH    LGT RAIN  49  47  93 N8        29.99R
$$

NYZ001>004-010>016-019>021-211700-
WEST


CITY           SKY/WX    TMP DP  RH WIND       PRES   REMARKS
NIAGARA FALLS  CLOUDY    53  48  83 N9        29.86R
BUFFALO        CLOUDY    53  48  83 N5        29.86R
DUNKIRK        CLOUDY    53  47  79 W9        29.87R
JAMESTOWN      CLOUDY    48  45  87 NW3       29.87R
WELLSVILLE     CLOUDY    51  46  83 W6        29.86S
ROCHESTER      CLOUDY    53  51  93 CALM      29.85S FOG
PENN YAN       CLOUDY    54  50  86 S6        29.85S
$$

             KEY
       WCI = WIND CHILL INDEX
       VSB = VISIBILITY
       HX  = HEAT INDEX
$$



USA.gov is the U.S. government's official web portal to all federal, state and local government web resources and services.